Location: Milton
(43.5183°N, 79.8775°W)
Time: 14:28:38
(UTC+00:00)

N. Korean satellite - Visible Passes

Search period start: 04 December 2022 00:00
Search period end: 14 December 2022 00:00
Orbit: 421 x 453 km, 97.3° (Epoch: 03 December)

Date Brightness Start Highest point End Pass type
(mag) Time Alt. Az. Time Alt. Az. Time Alt. Az.
04 Dec 9.6 09:44:55 10° NE 09:46:55 15° E 09:48:54 10° SE visible
04 Dec 7.1 11:16:28 10° N 11:19:31 31° WNW 11:22:32 10° SW visible
05 Dec 6.5 10:37:20 10° NNE 10:40:44 75° ESE 10:44:05 10° S visible
05 Dec 9.6 22:40:58 10° SW 22:43:21 18° W 22:45:46 10° NW visible
06 Dec 8.9 09:58:59 10° NE 10:01:41 22° E 10:04:22 10° SSE visible
06 Dec 7.6 11:31:29 10° NNW 11:34:06 21° WNW 11:36:40 10° WSW visible
07 Dec 6.2 10:51:56 10° N 10:55:19 67° WNW 10:58:38 10° SSW visible
07 Dec 9.9 22:56:39 10° WSW 22:58:01 12° W 22:59:24 10° WNW visible
08 Dec 8.1 10:13:10 10° NNE 10:16:17 33° E 10:19:20 10° SSE visible
08 Dec 8.1 11:46:35 10° NNW 11:48:29 14° WNW 11:50:22 10° W visible
08 Dec 8.3 22:15:37 10° SSW 22:18:46 36° W 22:21:58 10° NNW visible
09 Dec 9.9 09:36:04 10° ENE 09:36:59 11° E 09:37:54 10° ESE visible
09 Dec 6.7 11:06:30 10° N 11:09:43 41° WNW 11:12:53 10° SW visible
10 Dec 7.1 10:27:23 10° NNE 10:30:42 52° E 10:33:57 10° S visible
10 Dec 9.1 22:30:23 10° SSW 22:33:11 24° W 22:36:00 10° NW visible
11 Dec 9.4 09:49:14 10° NE 09:51:25 16° E 09:53:35 10° SE visible
11 Dec 7.3 11:21:03 10° N 11:23:57 27° WNW 11:26:49 10° SW visible
12 Dec 6.3 10:41:34 10° NNE 10:44:57 85° ESE 10:48:16 10° SSW visible
12 Dec 9.6 22:45:17 10° SW 22:47:29 16° W 22:49:43 10° NW visible
13 Dec 8.7 10:02:54 10° NE 10:05:41 24° E 10:08:26 10° SSE visible
13 Dec 7.8 11:35:36 10° NNW 11:38:02 19° WNW 11:40:25 10° WSW visible
